Wind_Speed
24 23 22 21 20 20 19 18 17 16 16 15 14 13 12 11 10 9 8 7 6 5 5 4 4 4 3 2 2 1 2 2 2 3 4 5 5 6 6 7 7 8 8
26 25 24 23 22 22 21 19 18 17 17 16 15 14 13 12 11 10 9 8 7 6 6 5 5 4 4 3 3 2 2 2 3 4 5 5 6 7 7 8 8 8 8
28 27 26 25 25 23 22 21 20 19 19 18 17 16 14 13 13 12 11 10 9 7 7 6 5 5 4 4 3 3 3 4 4 4 5 6 7 7 8 9 9 9 9
30 29 29 28 27 26 24 23 22 22 20 19 19 18 16 15 14 13 12 11 10 9 8 7 6 6 5 4 4 4 4 4 5 5 6 7 8 8 9 9 9 10 10
32 32 31 30 29 28 27 25 24 24 22 21 20 19 18 17 16 15 13 12 11 10 9 8 7 7 6 6 5 5 6 6 6 6 7 8 8 9 9 10 10 11 11
34 34 33 32 31 30 29 28 26 25 24 23 22 20 19 18 17 16 15 14 13 12 10 10 9 8 8 7 7 7 7 7 7 8 8 9 9 10 10 11 11 12 12
37 36 35 34 34 33 31 30 29 27 25 24 24 22 21 20 18 17 16 15 14 13 12 11 11 10 9 8 8 8 8 8 8 9 9 10 10 11 11 12 12 13 13
38 38 38 36 36 35 33 31 30 29 27 26 26 24 23 21 20 19 17 16 15 15 13 13 12 11 10 10 9 9 9 9 10 10 10 11 11 12 13 13 14 14 14
38 39 40 39 38 37 36 33 32 30 30 28 27 26 25 23 22 20 19 18 17 16 15 14 14 13 11 11 10 10 11 11 11 11 11 12 12 13 14 14 15 15 15
38 39 40 41 39 38 38 35 33 32 31 30 28 27 27 25 23 22 21 19 18 17 16 16 15 14 13 12 12 12 12 12 12 13 13 14 14 15 15 16 16 16 17
38 39 40 40 40 40 39 37 35 34 32 31 30 29 27 26 25 23 22 21 20 18 18 17 16 15 15 14 14 14 14 14 14 14 15 15 16 16 17 17 17 18 18
39 39 40 40 41 41 41 39 36 35 33 32 32 30 28 27 26 25 24 22 21 20 19 18 17 17 16 16 16 16 16 16 16 16 16 17 18 18 18 18 19 19 19
39 39 40 41 42 41 42 41 38 37 35 33 32 32 30 28 26 25 25 24 23 22 21 20 19 18 18 18 18 18 18 18 18 18 18 19 19 19 20 20 20 21 21
40 40 40 41 42 42 43 43 41 39 38 35 33 32 31 29 27 26 26 25 24 24 23 22 21 20 19 19 19 20 21 21 20 20 20 20 21 21 21 22 23 23 23
39 40 41 41 42 42 43 44 42 39 38 36 35 35 33 31 29 27 27 26 26 25 24 23 23 22 21 21 21 21 21 21 22 22 22 22 22 23 23 24 24 24 24
39 40 41 42 43 43 44 44 41 39 38 37 35 34 34 32 30 28 28 27 26 26 25 25 24 24 23 22 22 21 22 22 22 23 23 24 24 25 25 26 26 26 26
39 40 41 40 42 44 45 45 41 40 39 37 36 34 33 32 30 29 28 27 28 27 27 26 25 24 25 24 24 23 23 24 25 25 25 25 26 27 27 27 27 28 29
38 39 41 41 41 43 44 45 42 40 38 37 35 33 32 32 32 30 29 28 29 29 29 29 27 27 26 25 25 25 25 25 26 27 27 28 28 28 28 29 29 30 31
36 38 39 41 41 41 43 42 40 38 38 36 35 34 33 33 33 32 30 29 29 29 30 29 29 28 28 28 27 27 27 27 28 29 29 30 30 30 30 30 31 31 32
34 37 39 39 39 39 40 40 40 39 38 36 35 35 34 33 32 32 30 29 29 30 31 31 31 30 30 29 29 29 29 30 30 31 30 31 32 32 33 33 33 33 34
33 37 39 39 39 39 40 39 37 38 39 37 36 35 34 33 32 32 31 31 31 32 33 33 33 32 32 31 31 31 30 30 30 32 32 33 33 34 34 34 35 35 35
29 33 36 36 38 39 40 39 37 37 38 38 37 36 34 33 33 32 32 31 32 32 33 34 35 35 34 33 33 32 32 33 32 32 33 34 34 35 35 36 36 36 37
28 31 32 33 34 36 38 38 38 36 37 38 36 35 34 33 33 33 34 34 33 33 34 35 35 36 35 35 34 34 34 34 35 35 34 35 36 36 37 38 38 39 39
26 29 30 31 32 33 35 36 35 35 36 37 36 34 32 32 32 34 34 35 35 34 34 35 36 37 37 37 37 37 38 37 37 37 37 37 38 38 38 38 39 40 40
25 27 28 30 32 33 33 33 34 33 35 36 37 35 33 33 33 34 34 35 36 36 35 35 35 37 37 37 38 39 39 39 39 38 39 39 40 39 40 39 40 40 41
24 25 26 26 28 30 31 30 31 31 33 34 35 36 35 35 35 34 35 35 36 37 38 38 38 38 38 39 39 40 40 40 40 40 39 40 40 41 41 41 41 41 42
Wind_Direction
233 230 228 225 223 222 222 220 217 217 215 213 212 210 208 206 204 202 202 203 201 199 199 203 205 206 208 213 224 236 256 273 298 310 314 317 320 322 322 320 320 320 318
233 230 228 227 224 223 222 221 219 219 218 216 215 214 212 210 208 206 206 207 205 205 205 207 211 214 218 227 237 247 260 273 288 299 305 312 318 319 319 318 318 317 315
233 231 229 228 226 224 223 222 222 220 220 218 217 216 214 212 212 210 209 209 209 210 210 215 218 221 224 230 241 254 265 273 284 292 300 308 314 316 316 317 316 316 315
233 232 230 229 227 226 224 223 223 222 221 220 219 217 215 213 212 211 211 211 211 211 213 218 222 224 228 232 243 259 272 275 284 291 296 302 308 310 312 313 313 314 314
233 232 230 229 228 226 225 223 223 223 222 221 220 217 216 215 213 213 213 213 213 213 216 221 226 230 232 237 247 261 270 279 285 290 293 297 301 305 309 311 312 313 311
233 231 230 229 228 226 225 224 223 223 222 222 220 218 218 218 217 216 216 216 216 216 219 224 228 231 233 241 252 261 271 279 284 288 290 292 295 300 305 308 310 311 310
234 231 230 229 229 227 225 225 224 223 222 221 220 220 220 220 219 218 217 218 220 220 223 226 229 230 235 245 255 262 270 275 282 287 288 288 290 295 301 304 306 308 308
233 231 230 228 228 226 225 224 224 223 221 221 221 221 223 222 221 220 219 220 222 224 226 228 230 232 239 247 255 263 269 273 278 282 285 287 288 293 297 299 300 303 305
231 229 228 227 226 225 224 223 223 223 222 223 222 222 223 223 223 223 221 222 224 226 228 229 229 233 240 247 254 262 267 271 276 279 282 284 287 291 295 297 298 300 302
230 229 228 227 226 223 221 221 221 222 222 222 222 223 224 224 224 224 222 223 225 226 228 230 232 237 243 249 256 262 267 271 276 278 280 282 285 289 292 294 296 298 300
229 228 227 226 225 222 220 219 219 220 220 222 223 223 223 223 223 224 224 225 226 228 230 232 235 239 246 253 259 264 268 271 274 276 278 280 284 287 289 291 293 295 297
228 227 226 224 224 221 219 217 218 219 219 221 222 221 221 222 222 224 225 226 227 229 232 234 237 240 245 255 261 264 266 270 273 275 278 281 283 286 287 289 291 293 294
227 226 225 223 222 221 218 216 216 217 219 221 221 223 222 222 222 224 226 227 228 230 233 236 239 243 249 256 260 263 266 269 272 274 277 280 282 284 286 288 289 290 291
224 223 222 221 221 219 217 216 215 218 220 222 222 222 224 223 223 225 228 229 230 232 235 238 241 246 255 258 260 263 265 268 271 274 277 279 281 282 284 287 287 287 288
223 222 220 220 218 218 217 216 216 220 221 222 223 223 224 225 225 227 228 230 232 234 236 240 242 248 254 259 263 264 266 269 272 273 276 278 280 282 284 286 286 286 287
222 221 220 221 219 218 218 217 219 218 219 221 224 223 224 226 228 230 232 234 236 237 239 242 244 250 255 259 263 265 268 269 272 275 276 278 281 282 283 284 284 285 286
222 220 218 220 219 218 218 217 218 218 217 221 224 224 226 227 229 231 233 236 239 241 243 243 247 253 256 261 264 266 268 271 274 274 276 278 280 281 282 282 283 284 285
220 219 219 219 218 217 217 217 218 218 218 222 225 227 227 228 230 231 234 237 239 242 244 246 249 255 258 262 265 266 269 273 274 275 276 278 280 281 281 282 282 283 284
218 217 218 217 216 215 215 215 218 219 220 223 226 227 228 229 231 234 236 239 240 243 245 247 251 256 259 262 263 266 269 274 275 274 274 277 279 281 281 282 283 283 283
217 216 215 216 217 216 215 217 220 220 220 222 225 226 228 230 232 235 236 239 241 244 246 248 252 257 260 262 264 267 271 273 275 274 275 277 278 280 281 282 282 283 283
214 215 217 219 219 219 218 219 219 221 221 223 225 227 229 233 235 238 240 241 243 246 248 251 254 258 261 262 265 269 272 273 275 276 276 278 279 280 280 281 282 283 283
214 215 216 219 221 222 222 221 222 224 224 224 225 228 232 236 238 241 244 246 248 250 251 253 256 259 262 263 265 269 272 273 274 277 278 279 279 279 281 281 281 282 283
217 216 217 217 220 221 222 223 224 225 226 226 228 232 235 239 242 245 247 250 252 255 256 257 259 260 262 264 265 268 271 273 275 276 277 278 278 279 280 280 280 281 282
217 214 217 219 223 222 223 224 225 228 225 228 231 233 236 238 241 247 249 252 255 257 260 261 262 262 263 265 267 269 271 273 275 276 277 278 278 279 280 279 280 280 280
217 217 216 220 223 223 222 224 227 229 229 231 233 233 235 237 241 246 250 253 256 258 260 262 263 264 264 266 268 270 272 273 275 276 277 277 278 279 279 280 280 280 280
221 219 219 219 223 225 224 225 227 229 230 233 235 237 239 241 245 248 251 253 256 259 262 263 264 266 266 267 269 271 272 273 275 276 277 278 278 278 279 279 281 281 281
Height
5843 5845 5846 5848 5849 5851 5852 5853 5854 5855 5856 5857 5858 5859 5860 5860 5861 5862 5863 5863 5864 5864 5865 5866 5866 5866 5867 5867 5867 5868 5868 5868 5868 5868 5868 5867 5867 5867 5866 5865 5864 5864 5863
5839 5841 5842 5844 5846 5847 5849 5850 5851 5852 5854 5855 5856 5857 5857 5858 5859 5860 5861 5862 5862 5863 5864 5864 5865 5865 5866 5866 5866 5867 5867 5867 5867 5867 5867 5866 5866 5865 5865 5864 5863 5862 5861
5833 5836 5838 5840 5841 5843 5845 5846 5848 5849 5851 5852 5853 5854 5855 5856 5857 5858 5859 5860 5861 5861 5862 5863 5863 5864 5864 5865 5865 5865 5865 5865 5865 5865 5865 5865 5864 5864 5863 5862 5861 5860 5859
5828 5830 5833 5835 5837 5839 5840 5842 5844 5846 5847 5849 5850 5851 5852 5853 5854 5855 5857 5858 5859 5859 5860 5861 5862 5862 5863 5863 5864 5864 5864 5864 5864 5864 5863 5863 5862 5862 5861 5860 5859 5858 5857
5821 5824 5827 5829 5832 5834 5836 5838 5840 5842 5844 5845 5846 5848 5849 5850 5851 5852 5854 5855 5856 5857 5858 5859 5860 5861 5861 5862 5862 5862 5863 5862 5862 5862 5861 5861 5861 5860 5859 5858 5857 5856 5855
5814 5817 5820 5823 5826 5828 5831 5833 5835 5838 5839 5841 5842 5844 5845 5847 5848 5849 5851 5852 5853 5855 5856 5857 5858 5859 5859 5860 5860 5861 5861 5860 5860 5860 5859 5859 5858 5858 5857 5856 5855 5854 5852
5807 5810 5813 5816 5819 5823 5825 5828 5830 5833 5835 5837 5839 5840 5842 5843 5845 5846 5847 5849 5851 5852 5853 5854 5855 5856 5857 5858 5858 5858 5858 5858 5858 5857 5857 5857 5856 5855 5855 5854 5853 5851 5850
5798 5802 5806 5809 5812 5816 5819 5822 5825 5827 5830 5832 5834 5836 5838 5839 5841 5843 5844 5846 5847 5849 5850 5851 5853 5854 5855 5855 5856 5856 5856 5856 5856 5855 5854 5854 5853 5853 5852 5851 5850 5849 5847
5789 5793 5797 5801 5805 5809 5812 5816 5819 5822 5825 5827 5829 5831 5833 5835 5837 5839 5841 5842 5844 5846 5847 5848 5850 5851 5852 5852 5853 5853 5853 5853 5853 5852 5852 5851 5851 5850 5849 5848 5847 5846 5845
5781 5785 5789 5793 5797 5801 5805 5809 5812 5816 5819 5822 5824 5826 5828 5831 5833 5835 5837 5839 5841 5842 5844 5845 5847 5848 5849 5850 5850 5850 5850 5850 5850 5849 5849 5848 5848 5847 5846 5845 5844 5843 5842
5772 5776 5780 5784 5788 5793 5797 5801 5805 5809 5812 5816 5819 5821 5823 5826 5828 5831 5833 5835 5837 5839 5840 5842 5843 5845 5846 5846 5847 5847 5847 5847 5846 5846 5846 5845 5844 5844 5843 5842 5841 5840 5839
5764 5768 5772 5776 5781 5785 5790 5794 5798 5803 5806 5810 5813 5816 5819 5821 5824 5826 5829 5831 5833 5835 5836 5838 5839 5841 5842 5843 5843 5843 5843 5843 5843 5842 5842 5841 5841 5840 5839 5838 5837 5836 5835
5755 5759 5764 5768 5773 5778 5782 5787 5792 5796 5800 5804 5807 5810 5814 5817 5819 5822 5825 5827 5829 5831 5832 5834 5836 5837 5838 5838 5839 5839 5839 5839 5839 5838 5838 5837 5837 5836 5835 5834 5833 5832 5831
5747 5751 5756 5761 5766 5770 5775 5781 5785 5789 5793 5797 5801 5805 5808 5812 5815 5817 5820 5822 5824 5826 5828 5830 5831 5832 5833 5834 5835 5835 5835 5835 5835 5834 5834 5833 5832 5831 5830 5829 5828 5827 5826
5739 5743 5748 5753 5758 5763 5768 5774 5779 5783 5787 5792 5795 5799 5803 5806 5810 5813 5815 5817 5819 5822 5823 5825 5826 5827 5829 5829 5830 5830 5830 5830 5830 5829 5829 5828 5828 5827 5826 5824 5823 5822 5821
5730 5736 5741 5747 5752 5756 5761 5767 5772 5777 5781 5785 5789 5793 5797 5801 5804 5807 5810 5812 5814 5816 5818 5820 5821 5823 5824 5824 5825 5825 5825 5825 5825 5824 5824 5823 5822 5822 5820 5819 5818 5817 5816
5723 5728 5734 5739 5745 5750 5754 5760 5765 5771 5775 5780 5784 5788 5792 5795 5799 5802 5805 5807 5809 5811 5813 5815 5816 5818 5819 5819 5820 5820 5820 5820 5819 5819 5818 5817 5817 5816 5815 5813 5812 5811 5810
5717 5722 5727 5733 5738 5743 5748 5754 5760 5765 5770 5775 5779 5783 5786 5790 5793 5796 5800 5802 5804 5806 5808 5810 5811 5812 5813 5814 5814 5814 5814 5814 5813 5813 5812 5811 5811 5810 5809 5807 5806 5804 5803
5711 5716 5721 5727 5733 5737 5742 5748 5754 5760 5765 5769 5774 5778 5781 5785 5788 5791 5794 5796 5798 5800 5802 5804 5805 5806 5807 5808 5808 5808 5808 5808 5807 5806 5806 5805 5804 5803 5802 5801 5799 5798 5797
5706 5711 5716 5722 5727 5732 5738 5744 5749 5754 5759 5764 5768 5773 5776 5780 5783 5785 5788 5790 5792 5794 5796 5798 5799 5800 5801 5802 5802 5802 5802 5801 5800 5800 5799 5798 5797 5796 5795 5794 5792 5791 5790
5700 5706 5711 5717 5722 5728 5733 5738 5743 5748 5753 5758 5763 5767 5771 5774 5777 5780 5782 5784 5786 5788 5790 5791 5793 5793 5794 5795 5795 5795 5795 5795 5794 5793 5792 5791 5790 5789 5787 5786 5785 5783 5782
5696 5701 5706 5711 5717 5722 5728 5733 5739 5744 5748 5752 5757 5761 5764 5768 5771 5774 5776 5778 5780 5782 5783 5785 5786 5787 5787 5788 5788 5788 5788 5788 5786 5785 5784 5783 5782 5781 5780 5778 5777 5775 5774
5692 5697 5702 5707 5712 5717 5723 5728 5734 5738 5742 5747 5751 5755 5758 5762 5765 5767 5770 5772 5773 5775 5777 5777 5778 5779 5780 5780 5780 5780 5780 5780 5779 5778 5776 5775 5774 5773 5771 5770 5768 5767 5765
5689 5693 5698 5703 5708 5713 5718 5723 5729 5733 5737 5741 5745 5748 5752 5755 5758 5761 5763 5765 5767 5768 5769 5770 5771 5772 5772 5772 5772 5772 5772 5771 5770 5769 5768 5766 5765 5764 5762 5761 5759 5758 5756
5686 5690 5695 5700 5705 5710 5714 5719 5723 5727 5731 5735 5738 5742 5745 5748 5751 5753 5755 5757 5759 5760 5762 5762 5763 5763 5764 5763 5764 5763 5762 5762 5761 5760 5759 5758 5756 5755 5753 5752 5750 5748 5746
5684 5688 5693 5697 5702 5706 5710 5714 5719 5722 5725 5729 5732 5735 5739 5742 5744 5746 5747 5749 5751 5752 5753 5754 5755 5755 5755 5755 5755 5754 5753 5752 5751 5750 5749 5748 5747 5745 5743 5742 5740 5738 5737